Track STARLINK-4017 now! 10-day predictions STARLINK-4017 is classified as:
1 52682U 22053AC 22230.91667824 .00039233 00000-0 24708-2 0 9990 2 52682 53.2145 214.5337 0002101 43.6164 301.8891 15.08820354 14672